• In Uzbekistan
  • List of Countries
  • For 7 days
  • Water Temperature
  • Satellite Maps
  • Weather Map
  • Weather Widgets
  • user-avatar
    Login

    Hourly Weather Ivanov Dvorec

    Today, 19 April, Friday

    Time Temperature Precipitation Wind Pressure Humidity
    00:00 +5°C° 0 mm 4 mps 754 mmHg 66%
    01:00 +4°C° 0 mm 4 mps 755 mmHg 67%
    02:00 +4°C° 0 mm 3 mps 755 mmHg 70%
    03:00 +3°C° 0 mm 3 mps 755 mmHg 71%
    04:00 +3°C° 0 mm 3 mps 755 mmHg 71%
    05:00 +2°C° 0 mm 3 mps 756 mmHg 72%
    06:00 +4°C° 0 mm 4 mps 756 mmHg 66%
    07:00 +5°C° 0 mm 4 mps 756 mmHg 60%
    08:00 +7°C° 0 mm 4 mps 756 mmHg 53%
    09:00 +8°C° 0 mm 4 mps 756 mmHg 48%
    10:00 +10°C° 0 mm 4 mps 757 mmHg 44%
    11:00 +11°C° 0 mm 4 mps 757 mmHg 39%
    12:00 +12°C° 0 mm 4 mps 756 mmHg 39%
    13:00 +12°C° 0 mm 4 mps 756 mmHg 38%
    14:00 +12°C° 0 mm 4 mps 756 mmHg 38%
    15:00 +12°C° 0 mm 3 mps 756 mmHg 39%
    16:00 +12°C° 0 mm 3 mps 756 mmHg 39%
    17:00 +13°C° 0 mm 2 mps 756 mmHg 40%
    18:00 +10°C° 0 mm 2 mps 756 mmHg 44%
    19:00 +10°C° 0 mm 1 mps 756 mmHg 49%
    20:00 +8°C° 0 mm 1 mps 756 mmHg 53%
    21:00 +8°C° 0 mm 1 mps 756 mmHg 55%
    22:00 +7°C° 0 mm 1 mps 755 mmHg 56%
    23:00 +7°C° 0 mm 1 mps 755 mmHg 58%

    Tomorrow, 20 April, Saturday

    Time Temperature Precipitation Wind Pressure Humidity
    00:00 +7°C° 0 mm 1 mps 755 mmHg 59%
    01:00 +5°C° 0 mm 2 mps 755 mmHg 60%
    02:00 +5°C° 0 mm 2 mps 755 mmHg 61%
    03:00 +5°C° 0 mm 2 mps 755 mmHg 63%
    04:00 +4°C° 0 mm 2 mps 754 mmHg 64%
    05:00 +4°C° 0 mm 2 mps 754 mmHg 66%
    06:00 +6°C° 0 mm 2 mps 754 mmHg 63%
    07:00 +7°C° 0 mm 2 mps 754 mmHg 61%
    08:00 +8°C° 0 mm 3 mps 754 mmHg 58%
    09:00 +10°C° 0 mm 2 mps 753 mmHg 55%
    10:00 +12°C° 0 mm 2 mps 753 mmHg 52%
    11:00 +13°C° 0 mm 2 mps 753 mmHg 48%
    12:00 +13°C° 0.1 mm 2 mps 753 mmHg 49%
    13:00 +13°C° 0.1 mm 2 mps 753 mmHg 50%
    14:00 +13°C° 0.1 mm 2 mps 752 mmHg 51%
    15:00 +13°C° 0 mm 2 mps 752 mmHg 52%
    16:00 +13°C° 0 mm 2 mps 752 mmHg 54%
    17:00 +12°C° 0 mm 1 mps 752 mmHg 56%
    18:00 +11°C° 0.1 mm 1 mps 752 mmHg 63%
    19:00 +10°C° 0.1 mm 1 mps 752 mmHg 70%
    20:00 +8°C° 0.1 mm 0 mps 751 mmHg 76%
    21:00 +9°C° 0.2 mm 1 mps 751 mmHg 79%
    22:00 +9°C° 0.2 mm 1 mps 751 mmHg 82%
    23:00 +8°C° 0.2 mm 1 mps 751 mmHg 85%

    Day after tomorrow, 21 April, Sunday

    Time Temperature Precipitation Wind Pressure Humidity
    00:00 +7°C° 0.7 mm 2 mps 751 mmHg 87%
    01:00 +7°C° 0.7 mm 2 mps 751 mmHg 88%
    02:00 +7°C° 0.7 mm 3 mps 751 mmHg 89%
    03:00 +7°C° 0.3 mm 3 mps 751 mmHg 87%
    04:00 +6°C° 0.3 mm 4 mps 751 mmHg 85%
    05:00 +6°C° 0.3 mm 4 mps 751 mmHg 83%
    06:00 +7°C° 0 mm 4 mps 751 mmHg 77%
    07:00 +8°C° 0 mm 4 mps 752 mmHg 72%
    08:00 +8°C° 0 mm 5 mps 752 mmHg 66%
    09:00 +10°C° 0 mm 5 mps 752 mmHg 59%
    10:00 +12°C° 0 mm 5 mps 753 mmHg 52%
    11:00 +13°C° 0 mm 6 mps 753 mmHg 45%
    12:00 +13°C° 0 mm 6 mps 753 mmHg 44%
    13:00 +14°C° 0 mm 6 mps 753 mmHg 42%
    14:00 +14°C° 0 mm 6 mps 753 mmHg 41%
    15:00 +14°C° 0 mm 5 mps 753 mmHg 42%
    16:00 +13°C° 0 mm 5 mps 754 mmHg 44%
    17:00 +13°C° 0 mm 5 mps 754 mmHg 45%
    18:00 +12°C° 0 mm 4 mps 754 mmHg 48%
    19:00 +11°C° 0 mm 3 mps 754 mmHg 52%
    20:00 +10°C° 0 mm 3 mps 755 mmHg 55%
    21:00 +9°C° 0 mm 2 mps 755 mmHg 57%
    22:00 +9°C° 0 mm 2 mps 755 mmHg 59%
    23:00 +8°C° 0 mm 2 mps 756 mmHg 61%

    22 April, Monday

    Time Temperature Precipitation Wind Pressure Humidity
    00:00 +8°C° 0 mm 2 mps 756 mmHg 62%
    01:00 +8°C° 0 mm 2 mps 756 mmHg 62%
    02:00 +8°C° 0 mm 2 mps 756 mmHg 63%
    03:00 +8°C° 0 mm 2 mps 756 mmHg 63%
    04:00 +7°C° 0 mm 2 mps 757 mmHg 64%
    05:00 +7°C° 0 mm 2 mps 757 mmHg 64%
    06:00 +8°C° 0 mm 2 mps 757 mmHg 60%
    07:00 +9°C° 0 mm 2 mps 757 mmHg 56%
    08:00 +12°C° 0 mm 2 mps 758 mmHg 52%
    09:00 +12°C° 0 mm 2 mps 758 mmHg 48%
    10:00 +13°C° 0 mm 2 mps 758 mmHg 43%
    11:00 +14°C° 0 mm 2 mps 758 mmHg 38%
    12:00 +14°C° 0 mm 2 mps 758 mmHg 38%
    13:00 +14°C° 0 mm 2 mps 757 mmHg 39%
    14:00 +15°C° 0 mm 2 mps 757 mmHg 39%
    15:00 +14°C° 0 mm 1 mps 757 mmHg 40%
    16:00 +14°C° 0 mm 1 mps 757 mmHg 41%
    17:00 +14°C° 0 mm 1 mps 757 mmHg 42%
    18:00 +13°C° 0 mm 1 mps 757 mmHg 45%
    19:00 +13°C° 0 mm 1 mps 757 mmHg 48%
    20:00 +12°C° 0 mm 1 mps 757 mmHg 51%
    21:00 +11°C° 0 mm 1 mps 757 mmHg 54%
    22:00 +10°C° 0 mm 1 mps 757 mmHg 56%
    23:00 +8°C° 0 mm 2 mps 757 mmHg 59%

    23 April, Tuesday

    Time Temperature Precipitation Wind Pressure Humidity
    00:00 +9°C° 0 mm 1 mps 758 mmHg 60%
    01:00 +9°C° 0 mm 1 mps 758 mmHg 61%
    02:00 +8°C° 0 mm 1 mps 758 mmHg 62%
    03:00 +8°C° 0 mm 1 mps 758 mmHg 63%
    04:00 +6°C° 0 mm 0 mps 758 mmHg 64%
    05:00 +6°C° 0 mm 0 mps 758 mmHg 65%
    06:00 +9°C° 0 mm 1 mps 758 mmHg 60%
    07:00 +10°C° 0 mm 1 mps 758 mmHg 55%
    08:00 +12°C° 0 mm 1 mps 759 mmHg 50%
    09:00 +13°C° 0 mm 1 mps 759 mmHg 46%
    10:00 +14°C° 0 mm 2 mps 759 mmHg 42%
    11:00 +15°C° 0 mm 2 mps 759 mmHg 37%
    12:00 +15°C° 0 mm 2 mps 758 mmHg 37%
    13:00 +16°C° 0 mm 2 mps 758 mmHg 37%
    14:00 +16°C° 0 mm 2 mps 758 mmHg 37%
    15:00 +16°C° 0 mm 2 mps 758 mmHg 39%
    16:00 +15°C° 0 mm 2 mps 757 mmHg 41%
    17:00 +15°C° 0 mm 2 mps 757 mmHg 43%
    18:00 +14°C° 0 mm 2 mps 757 mmHg 47%
    19:00 +12°C° 0 mm 2 mps 757 mmHg 51%
    20:00 +10°C° 0 mm 2 mps 757 mmHg 55%
    21:00 +9°C° 0 mm 2 mps 757 mmHg 57%
    22:00 +8°C° 0 mm 2 mps 758 mmHg 59%
    23:00 +8°C° 0 mm 2 mps 758 mmHg 60%

    24 April, Wednesday

    Time Temperature Precipitation Wind Pressure Humidity
    00:00 +8°C° 0 mm 1 mps 758 mmHg 62%
    01:00 +8°C° 0 mm 1 mps 758 mmHg 63%
    02:00 +8°C° 0 mm 1 mps 758 mmHg 64%
    03:00 +7°C° 0 mm 1 mps 758 mmHg 65%
    04:00 +7°C° 0 mm 1 mps 758 mmHg 66%
    05:00 +7°C° 0 mm 1 mps 758 mmHg 67%
    06:00 +8°C° 0 mm 2 mps 758 mmHg 63%
    07:00 +9°C° 0 mm 2 mps 759 mmHg 58%
    08:00 +12°C° 0 mm 2 mps 759 mmHg 54%
    09:00 +13°C° 0 mm 3 mps 759 mmHg 49%
    10:00 +14°C° 0 mm 3 mps 758 mmHg 45%
    11:00 +15°C° 0 mm 4 mps 758 mmHg 40%
    12:00 +15°C° 0 mm 4 mps 758 mmHg 40%
    13:00 +17°C° 0 mm 4 mps 758 mmHg 40%
    14:00 +17°C° 0 mm 4 mps 758 mmHg 40%
    15:00 +17°C° 0 mm 4 mps 757 mmHg 41%
    16:00 +17°C° 0 mm 4 mps 757 mmHg 42%
    17:00 +15°C° 0 mm 4 mps 757 mmHg 44%
    18:00 +14°C° 0 mm 3 mps 757 mmHg 50%
    19:00 +12°C° 0 mm 3 mps 757 mmHg 56%
    20:00 +10°C° 0 mm 3 mps 757 mmHg 61%
    21:00 +10°C° 0 mm 3 mps 757 mmHg 63%
    22:00 +9°C° 0 mm 3 mps 757 mmHg 65%
    23:00 +9°C° 0 mm 3 mps 757 mmHg 66%
    Show more